星链-34600 (STARLINK-34600)

导读

STARLINK-34600是美国SpaceX星链互联网星座的组成卫星,于2025年6月28日发射入轨。作为低轨通信卫星,它承载卫星互联网组网任务,可为全球偏远地区、移动载体提供高速宽带网络接入,进一步扩充星链星座的覆盖容量与服务稳定性,延续SpaceX大规模低轨卫星星座的部署进程。

基本信息
目录编号:
64699
目录名称:
STARLINK-34600
国际标识:
2025-142D
轨道中心:
EARTH
卫星名称:
星链-34600
卫星全名:
星链-34600 (STARLINK-34600)
卫星状态:
在轨 (已飞行350 天)
发射日期:
2025-06-28 UTC
国别 :
美国 (US)
星等 :
--
轨道信息
数据来源 国际轨道数据 AOE轨道数据
星历时间 2026-06-13T19:03:08+0800
10小时前
查看轨道信息
2026-06-11T02:00:00+0800
3天前
查看轨道信息
半长轴 6950.171km 6950.147km
偏心率 0.0002963 0.0003208
轨道倾角 70.003° 70.001°
近地点辐角 257.030° 262.724°
升交点赤经 73.070° 79.902°
平近点角 103.053° 241.004°
近地点 569.974km 569.78km
远地点 574.094km 574.24km
周期 96.107分钟 96.106分钟
每日圈数 14.983371 14.98345
详细信息
固有亮度:
5
最大亮度:
2.5
卫星平台:
Starlink V1.0
覆盖范围:
全球
运营商:
太空探索技术公司
运营商所在国:
美国
制造商(研发单位):
太空探索技术公司
制造商所在国:
美国
使用方式:
暂无
卫星简介
Starlink 计划是 SpaceX 推出的全球卫星互联网项目,通过发射低轨道卫星,为全球尤其是偏远地区提供高速、低延迟的互联网服务。自 2019 年起,Starlink 已部署数千颗卫星,旨在缩小全球数字鸿沟,推动互联网普及。该项目还为军事、航空等行业提供通信支持,带来广泛经济效益。
2D轨道图
3D轨道图
轨道高度分析图
轨道倾角分析图
轨道综合分析图
查看轨道综合分析图